| time (UTC) | temp F | wind direction | speed MPH | gust MPH | rain 1hr in | rain 24hr in | rain mn in | humidity % | barometer mb |
| 20260903004558 | 77 | 315 | 0.0 | 0.0 | 0.00 | 0.00 | 0.00 | 90 | 1018.7 |
| 20260903003059 | 77 | 314 | 0.0 | 0.0 | 0.00 | 0.00 | 0.00 | 90 | 1018.8 |
| 20260903001551 | 77 | 315 | 0.0 | 0.0 | 0.00 | 0.00 | 0.00 | 89 | 1019.0 |
| 20260903000052 | 77 | 325 | 0.0 | 0.0 | 0.00 | 0.00 | 0.00 | 89 | 1019.0 |
| 20260902234600 | 77 | 329 | 0.0 | 0.0 | 0.00 | 0.00 | 0.00 | 89 | 1019.1 |
| 20260902233053 | 77 | 329 | 0.0 | 0.0 | 0.00 | 0.00 | 0.00 | 89 | 1018.9 |
| 20260902231549 | 77 | 328 | 0.0 | 0.0 | 0.00 | 0.00 | 0.00 | 89 | 1019.1 |
| 20260902230050 | 77 | 329 | 0.0 | 0.0 | 0.00 | 0.00 | 0.00 | 89 | 1019.1 |
| 20260902224553 | 77 | 340 | 0.0 | 0.0 | 0.00 | 0.00 | 0.00 | 88 | 1019.1 |
| 20260902223047 | 77 | 340 | 0.0 | 0.0 | 0.00 | 0.00 | 0.00 | 88 | 1019.1 |
| 20260902221544 | 78 | 188 | 0.0 | 0.0 | 0.00 | 0.00 | 0.00 | 88 | 1019.0 |
| 20260902220041 | 78 | 190 | 0.0 | 0.0 | 0.00 | 0.00 | 0.00 | 88 | 1019.1 |
| 20260902214541 | 78 | 190 | 0.0 | 0.0 | 0.00 | 0.00 | 0.00 | 88 | 1019.1 |
| 20260902213039 | 79 | 190 | 0.0 | 0.0 | 0.00 | 0.00 | 0.00 | 88 | 1019.0 |
| 20260902211542 | 79 | 190 | 0.0 | 0.0 | 0.00 | 0.00 | 0.00 | 87 | 1019.0 |
| 20260902210045 | 79 | 160 | 0.0 | 0.0 | 0.00 | 0.00 | 0.00 | 87 | 1018.9 |
| 20260902204541 | 79 | 160 | 0.0 | 0.0 | 0.00 | 0.00 | 0.00 | 86 | 1018.8 |
| 20260902203044 | 79 | 143 | 0.0 | 0.0 | 0.00 | 0.00 | 0.00 | 86 | 1018.7 |
| 20260902201542 | 79 | 143 | 0.0 | 0.0 | 0.00 | 0.00 | 0.00 | 86 | 1018.5 |
| 20260902200049 | 79 | 130 | 0.0 | 0.0 | 0.00 | 0.00 | 0.00 | 86 | 1018.3 |
| 20260902194537 | 79 | 140 | 0.0 | 0.0 | 0.00 | 0.00 | 0.00 | 86 | 1018.1 |
| 20260902193034 | 79 | 127 | 0.0 | 0.0 | 0.00 | 0.00 | 0.00 | 86 | 1017.8 |
| 20260902191546 | 80 | 142 | 0.0 | 0.0 | 0.00 | 0.00 | 0.00 | 85 | 1017.6 |
| 20260902190033 | 80 | 134 | 0.0 | 0.0 | 0.00 | 0.00 | 0.00 | 85 | 1017.5 |
| 20260902184545 | 80 | 115 | 0.0 | 0.0 | 0.00 | 0.00 | 0.00 | 84 | 1017.4 |
| 20260902183032 | 80 | 140 | 0.0 | 3.0 | 0.00 | 0.00 | 0.00 | 83 | 1017.2 |
| 20260902181535 | 81 | 142 | 0.0 | 0.0 | 0.00 | 0.00 | 0.00 | 82 | 1017.4 |
| 20260902180033 | 81 | 133 | 0.0 | 0.0 | 0.00 | 0.00 | 0.00 | 82 | 1017.3 |
| 20260902174530 | 81 | 124 | 0.0 | 1.0 | 0.00 | 0.00 | 0.00 | 81 | 1017.3 |
| 20260902173028 | 82 | 149 | 0.0 | 1.0 | 0.00 | 0.00 | 0.00 | 79 | 1017.3 |
| 20260902171529 | 83 | 129 | 0.0 | 3.0 | 0.00 | 0.00 | 0.00 | 78 | 1017.3 |
| 20260902170028 | 84 | 146 | 0.0 | 1.0 | 0.00 | 0.00 | 0.00 | 75 | 1017.3 |
| 20260902164527 | 84 | 121 | 0.0 | 1.0 | 0.00 | 0.00 | 0.00 | 74 | 1017.1 |
| 20260902163026 | 84 | 121 | 0.0 | 0.0 | 0.00 | 0.00 | 0.00 | 74 | 1017.3 |
| 20260902161524 | 84 | 152 | 0.0 | 1.0 | 0.00 | 0.00 | 0.00 | 75 | 1017.2 |
| 20260902160024 | 84 | 156 | 0.0 | 5.0 | 0.00 | 0.00 | 0.00 | 75 | 1017.3 |
| 20260902154526 | 84 | 107 | 0.0 | 4.0 | 0.00 | 0.00 | 0.00 | 75 | 1017.2 |
| 20260902153025 | 84 | 149 | 0.0 | 3.0 | 0.00 | 0.00 | 0.00 | 75 | 1017.3 |
| 20260902151522 | 84 | 150 | 0.0 | 8.0 | 0.00 | 0.00 | 0.00 | 74 | 1017.4 |
| 20260902150021 | 84 | 119 | 0.0 | 1.0 | 0.00 | 0.00 | 0.00 | 73 | 1017.5 |
| 20260902144522 | 84 | 102 | 0.0 | 3.0 | 0.00 | 0.00 | 0.00 | 73 | 1017.6 |
| 20260902143024 | 84 | 142 | 0.0 | 5.0 | 0.00 | 0.00 | 0.00 | 72 | 1017.6 |
| 20260902141519 | 85 | 146 | 0.0 | 6.0 | 0.00 | 0.00 | 0.00 | 73 | 1017.8 |
| 20260902140019 | 85 | 156 | 0.0 | 10.0 | 0.00 | 0.00 | 0.00 | 73 | 1017.9 |
| 20260902134517 | 84 | 150 | 0.0 | 9.0 | 0.00 | 0.00 | 0.00 | 73 | 1017.9 |
| 20260902133017 | 85 | 143 | 0.0 | 4.0 | 0.00 | 0.00 | 0.00 | 71 | 1017.9 |
| 20260902131514 | 85 | 152 | 0.0 | 6.0 | 0.00 | 0.00 | 0.00 | 72 | 1018.0 |
| 20260902130013 | 84 | 186 | 0.0 | 5.0 | 0.00 | 0.00 | 0.00 | 74 | 1018.1 |
| 20260902124512 | 85 | 153 | 0.0 | 5.0 | 0.00 | 0.00 | 0.00 | 72 | 1018.1 |
| 20260902123012 | 85 | 149 | 0.0 | 7.0 | 0.00 | 0.00 | 0.00 | 72 | 1018.3 |
| 20260902121510 | 84 | 150 | 0.0 | 7.0 | 0.00 | 0.00 | 0.00 | 72 | 1018.3 |
| 20260902120010 | 84 | 176 | 1.0 | 10.0 | 0.00 | 0.00 | 0.00 | 71 | 1018.4 |
| 20260902114513 | 84 | 163 | 0.0 | 1.0 | 0.00 | 0.00 | 0.00 | 71 | 1018.4 |
| 20260902113012 | 84 | 134 | 0.0 | 0.0 | 0.00 | 0.00 | 0.00 | 71 | 1018.5 |
| 20260902111505 | 84 | 205 | 0.0 | 4.0 | 0.00 | 0.00 | 0.00 | 73 | 1018.6 |
| 20260902110013 | 84 | 115 | 0.0 | 7.0 | 0.00 | 0.00 | 0.00 | 72 | 1018.7 |
| 20260902104501 | 83 | 166 | 0.0 | 7.0 | 0.00 | 0.00 | 0.00 | 74 | 1018.8 |
| 20260902103105 | 82 | 134 | 0.0 | 1.0 | 0.00 | 0.00 | 0.00 | 74 | 1018.7 |
| 20260902101559 | 82 | 113 | 0.0 | 4.0 | 0.00 | 0.00 | 0.00 | 74 | 1018.8 |
| 20260902100106 | 82 | 166 | 0.0 | 0.0 | 0.00 | 0.00 | 0.00 | 75 | 1018.9 |
| 20260902094555 | 82 | 168 | 0.0 | 2.0 | 0.00 | 0.00 | 0.00 | 75 | 1018.7 |
| 20260902093055 | 81 | 135 | 0.0 | 11.0 | 0.00 | 0.00 | 0.00 | 76 | 1018.9 |
| 20260902091554 | 81 | 232 | 0.0 | 0.0 | 0.00 | 0.00 | 0.00 | 75 | 1018.7 |
| 20260902090050 | 81 | 146 | 0.0 | 0.0 | 0.00 | 0.00 | 0.00 | 74 | 1018.4 |
| 20260902084545 | 80 | 224 | 0.0 | 0.0 | 0.00 | 0.00 | 0.00 | 76 | 1018.2 |
| 20260902083041 | 80 | 152 | 0.0 | 0.0 | 0.00 | 0.00 | 0.00 | 76 | 1018.1 |
| 20260902081539 | 79 | 154 | 0.0 | 0.0 | 0.00 | 0.00 | 0.00 | 77 | 1017.9 |
| 20260902080036 | 78 | 131 | 0.0 | 0.0 | 0.00 | 0.00 | 0.00 | 78 | 1017.7 |
| 20260902074538 | 78 | 141 | 0.0 | 0.0 | 0.00 | 0.00 | 0.00 | 79 | 1017.7 |
| 20260902073028 | 77 | 170 | 0.0 | 0.0 | 0.00 | 0.00 | 0.00 | 81 | 1017.6 |
| 20260902071524 | 76 | 139 | 0.0 | 0.0 | 0.00 | 0.00 | 0.00 | 83 | 1017.4 |
| 20260902070021 | 75 | 133 | 0.0 | 0.0 | 0.00 | 0.00 | 0.00 | 84 | 1017.4 |
| 20260902064519 | 73 | 352 | 0.0 | 0.0 | 0.00 | 0.00 | 0.00 | 86 | 1017.2 |
| 20260902063032 | 72 | 352 | 0.0 | 0.0 | 0.00 | 0.00 | 0.00 | 85 | 1017.0 |
| 20260902061522 | 72 | 352 | 0.0 | 0.0 | 0.00 | 0.00 | 0.00 | 84 | 1016.9 |
| 20260902060013 | 0 | 0.0 | 0.0 | 0.00 | 0.00 | 0.00 | 1016.8 | ||
| 20260902054512 | 0 | 0.0 | 0.0 | 0.00 | 0.00 | 0.00 | 1016.7 | ||
| 20260902053004 | 0 | 0.0 | 0.0 | 0.00 | 0.00 | 0.00 | 1016.5 | ||
| 20260902051605 | 0 | 0.0 | 0.0 | 0.00 | 0.00 | 0.00 | 1016.4 | ||
| 20260902044553 | 0 | 0.0 | 0.0 | 0.00 | 0.00 | 0.00 | 1016.3 | ||
| 20260902043050 | 0 | 0.0 | 0.0 | 0.00 | 0.00 | 0.00 | 1016.2 | ||
| 20260902041543 | 0 | 0.0 | 0.0 | 0.00 | 0.00 | 0.00 | 1016.3 | ||
| 20260902040039 | 0 | 0.0 | 0.0 | 0.00 | 0.00 | 0.00 | 1016.4 | ||
| 20260902034536 | 71 | 347 | 0.0 | 0.0 | 0.00 | 0.00 | 0.00 | 84 | 1016.5 |
| 20260902033032 | 71 | 330 | 0.0 | 0.0 | 0.00 | 0.00 | 0.00 | 85 | 1016.5 |
| 20260902031531 | 72 | 330 | 0.0 | 0.0 | 0.00 | 0.00 | 0.00 | 85 | 1016.6 |
| 20260902030030 | 72 | 321 | 0.0 | 0.0 | 0.00 | 0.00 | 0.00 | 86 | 1016.6 |
| 20260902024528 | 72 | 321 | 0.0 | 0.0 | 0.00 | 0.00 | 0.00 | 86 | 1016.6 |
| 20260902023027 | 72 | 20 | 0.0 | 0.0 | 0.00 | 0.00 | 0.00 | 86 | 1016.6 |
| 20260902021525 | 73 | 23 | 0.0 | 0.0 | 0.00 | 0.00 | 0.00 | 87 | 1016.7 |
| 20260902020025 | 73 | 23 | 0.0 | 0.0 | 0.00 | 0.00 | 0.00 | 87 | 1016.6 |
| 20260902014523 | 73 | 23 | 0.0 | 0.0 | 0.00 | 0.00 | 0.00 | 87 | 1016.7 |
| 20260902013022 | 73 | 23 | 0.0 | 0.0 | 0.00 | 0.00 | 0.00 | 87 | 1016.8 |
| 20260902011524 | 73 | 21 | 0.0 | 0.0 | 0.00 | 0.00 | 0.00 | 88 | 1016.9 |
| 20260902010019 | 73 | 23 | 0.0 | 0.0 | 0.00 | 0.00 | 0.00 | 87 | 1016.9 |